Zurück zum Katalog

NOAA 17 DEB

AktivSSO
NORAD 48766·DEBRIS·🇺🇸 United States

Gestartet Jun 24, 2002 von Vandenberg Space Force Base

Loading…

Nächste Überflüge (nächste 24 Stunden)

TLE

AktuellSource: Space-Track

Epoche: Sep 13, 2026, 02:57 UTC

1 48766U 02032DB  26256.12352335  .00006574  00000-0  13716-2 0  9995
2 48766  98.6104 222.0144 0007796 352.4462   7.6619 14.60242891284078

Verfolge NOAA 17 DEB in Echtzeit mit AllMySat

Download on the App Store